Flag for Spain Weather past 2 weeks in Barcelona, Barcelona, Spain

Now
75 °F

Scattered clouds.


Feels Like: 77 °F
Forecast: 68 / 76 °F
Wind: 8 mph from Southeast

Location: Barcelona Airport

Current Time: Aug 20, 2014 at 11:02:08 AM

Latest Report: Aug 20, 2014 at 10:30 AM


Visibility: N/A

Pressure: 30.01 "Hg

Humidity: 69%

Dew point: 64 °F

Location of BarcelonaLocation

Historic Weather in Barcelona — Graph

°F

Barcelona temperature yesterday

Maximum temperature yesterday: 79 °F (at 12:00 PM)
Minimum temperature yesterday: 70 °F (at 5:00 AM)
Average temperature yesterday: 75 °F

Past Weeks' High & Low Weather Summary

 TemperatureHumidityPressure
High90 °F (Aug 13, 11:30 AM)89% (Aug 10, 10:30 PM)30.18 "Hg (Aug 10, 10:30 PM)
Low66 °F (Aug 17, 4:00 AM)31% (Aug 13, 12:00 PM)29.71 "Hg (Aug 13, 6:00 AM)
Average77 °F68%29.98 "Hg
* Reported Aug 5 10:00 AM — Aug 20 10:00 AM, Barcelona, Weather by CustomWeather, © 2014

Note: Actual official high and low records may vary slightly from our data, if they occured in-between our weather recording intervals... More about our weather records

Advertising

Barcelona weather history for previous 24 hours

 ConditionsComfort  
Time TempWeatherWind HumidityBarometerVisibility
10:00 AM
Aug 20
75 °FScattered clouds.8 mph65%29.98 "HgN/A
9:30 AM75 °FScattered clouds.7 mph65%29.98 "HgN/A
9:00 AM75 °FScattered clouds.7 mph65%29.98 "HgN/A
8:30 AM75 °FScattered clouds.7 mph65%29.98 "HgN/A
8:00 AM75 °FPartly cloudy.6 mph65%29.98 "HgN/A
7:30 AM75 °FPassing clouds.5 mph65%29.98 "HgN/A
7:00 AM75 °FPassing clouds.2 mph65%29.95 "HgN/A
6:30 AM73 °FPassing clouds.3 mph69%29.95 "HgN/A
6:00 AM73 °FPassing clouds.2 mph69%29.98 "HgN/A
5:30 AM73 °FPassing clouds.2 mph74%29.98 "HgN/A
5:00 AM73 °FPassing clouds.3 mph69%29.98 "HgN/A
4:30 AM75 °FPassing clouds.2 mph65%29.98 "HgN/A
4:00 AM75 °FPassing clouds.1 mph65%29.98 "HgN/A
3:30 AM73 °FPassing clouds.1 mph65%29.98 "HgN/A
3:00 AM75 °FPassing clouds.2 mph61%29.98 "HgN/A
2:30 AM75 °FPassing clouds.1 mph57%29.98 "HgN/A
2:00 AM75 °FPassing clouds.1 mph57%30.01 "HgN/A
1:30 AM75 °FPassing clouds.1 mph57%30.01 "HgN/A
1:00 AM75 °FPassing clouds.No wind54%30.01 "HgN/A
12:30 AM75 °FPassing clouds.3 mph54%30.01 "HgN/A
12:00 AM75 °FPassing clouds.2 mph57%30.01 "HgN/A
11:30 PM
Aug 19
75 °FPassing clouds.3 mph61%29.98 "HgN/A
10:30 PM75 °FPassing clouds.6 mph61%29.98 "HgN/A
10:00 PM75 °FPassing clouds.6 mph61%29.98 "HgN/A
9:30 PM75 °FScattered clouds.6 mph61%29.98 "HgN/A
9:00 PM75 °FScattered clouds.5 mph61%29.95 "HgN/A
8:30 PM77 °FScattered clouds.6 mph57%29.95 "HgN/A
8:00 PM77 °FPartly sunny.7 mph61%29.95 "HgN/A
7:30 PM77 °FScattered clouds.7 mph57%29.95 "HgN/A
7:00 PM77 °FScattered clouds.8 mph57%29.95 "HgN/A
6:30 PM77 °FScattered clouds.9 mph61%29.95 "HgN/A
6:00 PM79 °FPassing clouds.10 mph58%29.95 "HgN/A
5:30 PM79 °FPassing clouds.10 mph58%29.92 "HgN/A
5:00 PM79 °FPassing clouds.12 mph61%29.92 "HgN/A
4:30 PM79 °FPassing clouds.12 mph61%29.95 "HgN/A
4:00 PM79 °FPassing clouds.12 mph61%29.95 "HgN/A
3:30 PM79 °FPassing clouds.13 mph61%29.95 "HgN/A
3:00 PM79 °FPassing clouds.12 mph65%29.95 "HgN/A
2:30 PM79 °FPassing clouds.12 mph65%29.95 "HgN/A
2:00 PM79 °FPassing clouds.10 mph61%29.95 "HgN/A
1:30 PM79 °FPassing clouds.12 mph61%29.92 "HgN/A
1:00 PM79 °FScattered clouds.13 mph61%29.92 "HgN/A
12:30 PM77 °FPartly sunny.12 mph69%29.95 "HgN/A
12:00 PM79 °FScattered clouds.9 mph65%29.92 "HgN/A
11:30 AM77 °FScattered clouds.10 mph69%29.92 "HgN/A
11:00 AM77 °FPartly sunny.10 mph65%29.92 "HgN/A
Weather by CustomWeather, © 2014

See weather overviewHow to use our weather pages